Location: Bletchingley
(51.2333°N, 0.1000°W)
Time: 13:55:26
(UTC+00:00)

COSMOS 2406 - Pass Details

Date: 18 September 2020
Orbit: 844 x 863 km, 71.0° (Epoch: 25 October)

Event Time Altitude Azimuth Distance (km) Brightness Sun altitude
Rises 20:45:32 0° 330° (NNW) 3,416 7.5 -24.0°
Reaches altitude 10° 20:48:00 10° 332° (NNW) 2,477 6.5 -24.3°
Maximum altitude 20:53:41 74° 58° (ENE) 883 3.1 -25.0°
Enters shadow 20:54:21 66° 108° (ESE) 922 3.1 -25.0°
